Time,TemperatureF,DewpointF,PressureIn,WindDirection,WindDirectionDegrees,WindSpeedMPH,WindSpeedGustMPH,Humidity,HourlyPrecipIn,Conditions,Clouds,dailyrainin,SolarRadiationWatts/m^2,SoftwareType,DateUTC
2013-01-05 00:14:00,34.3,33.0,30.24,SSW,206,0.0,1.0,93,0.00,,,0.00,0,weatherlink.com 1.10,2013-01-05 08:14:00,
2013-01-05 00:29:00,33.4,31.0,30.24,SSW,206,0.0,0.0,92,0.00,,,0.00,0,weatherlink.com 1.10,2013-01-05 08:29:00,
2013-01-05 00:44:00,32.7,31.0,30.24,SSW,206,0.0,0.0,92,0.00,,,0.00,0,weatherlink.com 1.10,2013-01-05 08:44:00,
2013-01-05 00:59:00,32.5,31.0,30.23,SSW,206,0.0,0.0,94,0.00,,,0.00,0,weatherlink.com 1.10,2013-01-05 08:59:00,
2013-01-05 01:14:00,32.4,31.0,30.23,SSW,206,0.0,0.0,94,0.00,,,0.00,0,weatherlink.com 1.10,2013-01-05 09:14:00,
2013-01-05 01:29:00,32.1,31.0,30.23,SSW,206,0.0,0.0,94,0.00,,,0.00,0,weatherlink.com 1.10,2013-01-05 09:29:00,
2013-01-05 01:45:00,31.7,30.0,30.23,SSW,206,0.0,0.0,94,0.00,,,0.00,0,weatherlink.com 1.10,2013-01-05 09:45:00,
2013-01-05 01:59:00,31.8,30.0,30.24,SSW,206,0.0,0.0,94,0.00,,,0.00,0,weatherlink.com 1.10,2013-01-05 09:59:00,
2013-01-05 02:14:00,31.4,30.0,30.24,SSW,206,0.0,0.0,94,0.00,,,0.00,0,weatherlink.com 1.10,2013-01-05 10:14:00,
2013-01-05 02:29:00,32.1,31.0,30.24,SSW,206,0.0,1.0,95,0.00,,,0.00,0,weatherlink.com 1.10,2013-01-05 10:29:00,
2013-01-05 02:44:00,32.3,31.0,30.23,SSW,206,0.0,0.0,95,0.00,,,0.00,0,weatherlink.com 1.10,2013-01-05 10:44:00,
2013-01-05 02:59:00,31.9,30.0,30.23,SSW,206,0.0,0.0,94,0.00,,,0.00,0,weatherlink.com 1.10,2013-01-05 10:59:00,
2013-01-05 03:15:00,31.3,30.0,30.23,SSW,206,0.0,0.0,94,0.00,,,0.00,0,weatherlink.com 1.10,2013-01-05 11:15:00,
2013-01-05 03:30:00,30.8,29.0,30.23,SSW,206,0.0,0.0,94,0.00,,,0.00,0,weatherlink.com 1.10,2013-01-05 11:30:00,
2013-01-05 03:45:00,30.9,30.0,30.23,SSW,206,0.0,0.0,95,0.00,,,0.00,0,weatherlink.com 1.10,2013-01-05 11:45:00,
2013-01-05 04:00:00,31.1,30.0,30.23,SSW,206,0.0,0.0,95,0.00,,,0.00,0,weatherlink.com 1.10,2013-01-05 12:00:00,
2013-01-05 04:15:00,31.4,30.0,30.25,SSW,206,0.0,1.0,95,0.00,,,0.00,0,weatherlink.com 1.10,2013-01-05 12:15:00,
2013-01-05 04:30:00,31.9,31.0,30.24,SSW,206,0.0,1.0,95,0.00,,,0.00,0,weatherlink.com 1.10,2013-01-05 12:30:00,
2013-01-05 04:46:00,31.2,30.0,30.24,SSW,206,0.0,0.0,94,0.00,,,0.00,0,weatherlink.com 1.10,2013-01-05 12:46:00,
2013-01-05 05:00:00,31.2,30.0,30.24,SSW,206,0.0,0.0,95,0.00,,,0.00,0,weatherlink.com 1.10,2013-01-05 13:00:00,
2013-01-05 05:15:00,31.2,30.0,30.24,SSW,206,0.0,0.0,95,0.00,,,0.00,0,weatherlink.com 1.10,2013-01-05 13:15:00,
2013-01-05 05:30:00,31.2,30.0,30.25,SSW,206,0.0,0.0,95,0.00,,,0.00,0,weatherlink.com 1.10,2013-01-05 13:30:00,
2013-01-05 05:45:00,31.0,30.0,30.24,SSW,206,0.0,0.0,95,0.00,,,0.00,0,weatherlink.com 1.10,2013-01-05 13:45:00,
2013-01-05 06:01:00,31.1,30.0,30.25,SSW,206,0.0,0.0,95,0.00,,,0.00,0,weatherlink.com 1.10,2013-01-05 14:01:00,
2013-01-05 06:16:00,31.3,30.0,30.25,SSW,206,0.0,0.0,95,0.00,,,0.00,0,weatherlink.com 1.10,2013-01-05 14:16:00,
2013-01-05 06:31:00,31.1,30.0,30.26,SSW,206,0.0,0.0,95,0.00,,,0.00,0,weatherlink.com 1.10,2013-01-05 14:31:00,
2013-01-05 06:47:00,31.1,30.0,30.27,WNW,294,3.0,5.0,95,0.00,,,0.00,0,weatherlink.com 1.10,2013-01-05 14:47:00,
2013-01-05 07:01:00,30.9,30.0,30.27,WNW,294,0.0,3.0,95,0.00,,,0.00,0,weatherlink.com 1.10,2013-01-05 15:01:00,
2013-01-05 07:16:00,30.8,30.0,30.27,WNW,294,0.0,0.0,95,0.00,,,0.00,5,weatherlink.com 1.10,2013-01-05 15:16:00,
2013-01-05 07:31:00,30.6,29.0,30.27,WNW,294,0.0,0.0,95,0.00,,,0.00,9,weatherlink.com 1.10,2013-01-05 15:31:00,
2013-01-05 07:47:00,30.7,30.0,30.27,WNW,294,0.0,1.0,95,0.00,,,0.00,32,weatherlink.com 1.10,2013-01-05 15:47:00,
2013-01-05 08:02:00,30.9,30.0,30.27,WNW,294,0.0,0.0,95,0.00,,,0.00,60,weatherlink.com 1.10,2013-01-05 16:02:00,
2013-01-05 08:17:00,31.6,30.0,30.28,WNW,294,0.0,0.0,95,0.00,,,0.00,67,weatherlink.com 1.10,2013-01-05 16:17:00,
2013-01-05 08:32:00,32.3,31.0,30.28,WNW,294,0.0,1.0,95,0.00,,,0.00,86,weatherlink.com 1.10,2013-01-05 16:32:00,
2013-01-05 08:47:00,33.4,32.0,30.28,WNW,294,0.0,2.0,96,0.01,,,0.01,84,weatherlink.com 1.10,2013-01-05 16:47:00,
2013-01-05 09:02:00,35.7,35.0,30.28,ENE,68,0.0,3.0,96,0.01,,,0.01,167,weatherlink.com 1.10,2013-01-05 17:02:00,
2013-01-05 09:17:00,38.6,38.0,30.28,East,92,5.0,5.0,96,0.01,,,0.01,200,weatherlink.com 1.10,2013-01-05 17:17:00,
2013-01-05 09:32:00,40.4,39.0,30.28,East,81,3.0,8.0,96,0.01,,,0.01,243,weatherlink.com 1.10,2013-01-05 17:32:00,
2013-01-05 09:47:00,40.6,40.0,30.28,East,96,5.0,9.0,96,0.00,,,0.01,113,weatherlink.com 1.10,2013-01-05 17:47:00,
2013-01-05 10:02:00,42.0,40.0,30.28,SE,144,3.0,8.0,94,0.00,,,0.01,176,weatherlink.com 1.10,2013-01-05 18:02:00,
2013-01-05 10:17:00,42.8,41.0,30.28,SE,129,3.0,4.0,93,0.00,,,0.01,343,weatherlink.com 1.10,2013-01-05 18:17:00,
2013-01-05 10:32:00,44.4,42.0,30.27,ESE,123,5.0,5.0,91,0.00,,,0.01,338,weatherlink.com 1.10,2013-01-05 18:32:00,
2013-01-05 10:47:00,45.3,42.0,30.26,SE,127,3.0,7.0,89,0.00,,,0.01,357,weatherlink.com 1.10,2013-01-05 18:47:00,
2013-01-05 11:02:00,46.8,43.0,30.26,SE,124,4.0,6.0,87,0.00,,,0.01,475,weatherlink.com 1.10,2013-01-05 19:02:00,
2013-01-05 11:17:00,47.2,43.0,30.24,SE,137,5.0,10.0,85,0.00,,,0.01,376,weatherlink.com 1.10,2013-01-05 19:17:00,
2013-01-05 11:32:00,47.0,43.0,30.22,SE,139,7.0,10.0,85,0.00,,,0.01,327,weatherlink.com 1.10,2013-01-05 19:32:00,
2013-01-05 11:47:00,46.8,43.0,30.20,ESE,123,10.0,14.0,85,0.00,,,0.01,265,weatherlink.com 1.10,2013-01-05 19:47:00,
2013-01-05 12:02:00,46.9,42.0,30.20,SSE,153,4.0,8.0,84,0.00,,,0.01,202,weatherlink.com 1.10,2013-01-05 20:02:00,
2013-01-05 12:17:00,47.1,43.0,30.21,South,183,3.0,6.0,85,0.00,,,0.01,199,weatherlink.com 1.10,2013-01-05 20:17:00,
2013-01-05 12:33:00,46.4,42.0,30.20,WSW,248,5.0,7.0,85,0.00,,,0.01,272,weatherlink.com 1.10,2013-01-05 20:33:00,
2013-01-05 12:47:00,45.7,42.0,30.20,WSW,245,3.0,7.0,86,0.00,,,0.01,165,weatherlink.com 1.10,2013-01-05 20:47:00,
2013-01-05 13:03:00,44.7,41.0,30.19,West,268,1.0,6.0,87,0.00,,,0.01,149,weatherlink.com 1.10,2013-01-05 21:03:00,
2013-01-05 13:18:00,44.2,41.0,30.18,West,265,4.0,6.0,87,0.00,,,0.01,121,weatherlink.com 1.10,2013-01-05 21:18:00,
2013-01-05 13:33:00,44.1,41.0,30.18,West,271,5.0,7.0,88,0.00,,,0.01,121,weatherlink.com 1.10,2013-01-05 21:33:00,
2013-01-05 13:48:00,44.9,42.0,30.18,West,273,2.0,6.0,89,0.00,,,0.01,151,weatherlink.com 1.10,2013-01-05 21:48:00,
2013-01-05 14:03:00,45.6,42.0,30.16,NW,313,2.0,3.0,88,0.00,,,0.01,151,weatherlink.com 1.10,2013-01-05 22:03:00,
2013-01-05 14:18:00,46.3,42.0,30.15,ESE,120,3.0,4.0,84,0.00,,,0.01,139,weatherlink.com 1.10,2013-01-05 22:18:00,
2013-01-05 14:33:00,46.8,42.0,30.15,SE,130,2.0,5.0,83,0.00,,,0.01,137,weatherlink.com 1.10,2013-01-05 22:33:00,
2013-01-05 14:48:00,46.9,42.0,30.14,SE,130,3.0,5.0,82,0.00,,,0.01,116,weatherlink.com 1.10,2013-01-05 22:48:00,
2013-01-05 15:03:00,47.0,42.0,30.15,SE,136,1.0,3.0,82,0.00,,,0.01,102,weatherlink.com 1.10,2013-01-05 23:03:00,
2013-01-05 15:18:00,47.0,42.0,30.15,ESE,104,1.0,3.0,82,0.00,,,0.01,58,weatherlink.com 1.10,2013-01-05 23:18:00,
2013-01-05 15:33:00,46.9,41.0,30.15,ESE,104,0.0,1.0,81,0.00,,,0.01,39,weatherlink.com 1.10,2013-01-05 23:33:00,
2013-01-05 15:48:00,46.9,42.0,30.15,ESE,104,0.0,3.0,82,0.00,,,0.01,25,weatherlink.com 1.10,2013-01-05 23:48:00,
2013-01-05 16:03:00,46.6,42.0,30.14,East,101,0.0,2.0,84,0.00,,,0.01,19,weatherlink.com 1.10,2013-01-06 00:03:00,
2013-01-05 16:18:00,46.3,42.0,30.13,NE,51,3.0,5.0,85,0.00,,,0.01,12,weatherlink.com 1.10,2013-01-06 00:18:00,
2013-01-05 16:33:00,46.2,42.0,30.12,ENE,74,4.0,5.0,86,0.00,,,0.01,7,weatherlink.com 1.10,2013-01-06 00:33:00,
2013-01-05 16:48:00,46.1,43.0,30.13,ENE,74,2.0,5.0,87,0.00,,,0.01,5,weatherlink.com 1.10,2013-01-06 00:48:00,
2013-01-05 17:03:00,46.0,43.0,30.13,ENE,74,1.0,3.0,88,0.00,,,0.01,0,weatherlink.com 1.10,2013-01-06 01:03:00,
2013-01-05 17:18:00,45.8,43.0,30.13,ENE,74,2.0,3.0,88,0.00,,,0.01,0,weatherlink.com 1.10,2013-01-06 01:18:00,
2013-01-05 17:33:00,45.6,42.0,30.13,ENE,73,0.0,2.0,88,0.00,,,0.01,0,weatherlink.com 1.10,2013-01-06 01:33:00,
2013-01-05 17:48:00,45.3,43.0,30.13,ENE,72,2.0,3.0,90,0.00,,,0.01,0,weatherlink.com 1.10,2013-01-06 01:48:00,
2013-01-05 18:03:00,44.9,43.0,30.12,NNE,12,5.0,5.0,91,0.05,,,0.06,0,weatherlink.com 1.10,2013-01-06 02:03:00,
2013-01-05 18:18:00,44.6,43.0,30.13,NW,326,1.0,3.0,92,0.08,,,0.09,0,weatherlink.com 1.10,2013-01-06 02:18:00,
2013-01-05 18:33:00,44.4,42.0,30.12,NNW,342,2.0,3.0,92,0.10,,,0.11,0,weatherlink.com 1.10,2013-01-06 02:33:00,
2013-01-05 18:48:00,44.3,42.0,30.12,NNE,31,3.0,6.0,93,0.11,,,0.12,0,weatherlink.com 1.10,2013-01-06 02:48:00,
2013-01-05 19:03:00,44.1,42.0,30.11,NNE,30,1.0,5.0,93,0.06,,,0.12,0,weatherlink.com 1.10,2013-01-06 03:03:00,
2013-01-05 19:18:00,44.0,42.0,30.11,NNE,30,0.0,3.0,94,0.03,,,0.12,0,weatherlink.com 1.10,2013-01-06 03:18:00,
2013-01-05 19:33:00,43.9,42.0,30.11,NNE,30,2.0,2.0,94,0.01,,,0.12,0,weatherlink.com 1.10,2013-01-06 03:33:00,
2013-01-05 19:48:00,43.9,42.0,30.11,NNE,28,2.0,3.0,94,0.00,,,0.12,0,weatherlink.com 1.10,2013-01-06 03:48:00,
2013-01-05 20:03:00,43.9,42.0,30.11,NNE,19,3.0,5.0,94,0.00,,,0.12,0,weatherlink.com 1.10,2013-01-06 04:03:00,
2013-01-05 20:18:00,43.9,42.0,30.11,NNE,17,1.0,2.0,94,0.01,,,0.13,0,weatherlink.com 1.10,2013-01-06 04:18:00,
2013-01-05 20:33:00,43.9,42.0,30.11,NNE,28,3.0,4.0,94,0.02,,,0.14,0,weatherlink.com 1.10,2013-01-06 04:33:00,
2013-01-05 20:48:00,43.9,42.0,30.12,NNE,28,0.0,3.0,94,0.05,,,0.17,0,weatherlink.com 1.10,2013-01-06 04:48:00,
2013-01-05 21:03:00,43.9,43.0,30.11,North,11,2.0,6.0,95,0.09,,,0.21,0,weatherlink.com 1.10,2013-01-06 05:03:00,
2013-01-05 21:18:00,43.9,43.0,30.11,NE,42,4.0,7.0,95,0.10,,,0.23,0,weatherlink.com 1.10,2013-01-06 05:18:00,
2013-01-05 21:33:00,43.9,43.0,30.11,NNE,15,3.0,7.0,95,0.10,,,0.24,0,weatherlink.com 1.10,2013-01-06 05:33:00,
2013-01-05 21:48:00,43.6,42.0,30.11,North,355,4.0,8.0,95,0.07,,,0.25,0,weatherlink.com 1.10,2013-01-06 05:48:00,
2013-01-05 22:03:00,43.2,42.0,30.10,North,11,3.0,10.0,95,0.07,,,0.28,0,weatherlink.com 1.10,2013-01-06 06:03:00,
2013-01-05 22:18:00,43.0,41.0,30.10,NNE,24,3.0,9.0,94,0.06,,,0.29,0,weatherlink.com 1.10,2013-01-06 06:18:00,
2013-01-05 22:33:00,42.9,42.0,30.11,North,5,7.0,8.0,95,0.08,,,0.32,0,weatherlink.com 1.10,2013-01-06 06:33:00,
2013-01-05 22:48:00,42.8,42.0,30.11,NNE,12,7.0,11.0,95,0.10,,,0.35,0,weatherlink.com 1.10,2013-01-06 06:48:00,
2013-01-05 23:03:00,42.9,42.0,30.11,NNE,20,5.0,8.0,95,0.11,,,0.39,0,weatherlink.com 1.10,2013-01-06 07:03:00,
2013-01-05 23:18:00,42.9,42.0,30.10,NE,42,4.0,8.0,95,0.12,,,0.42,0,weatherlink.com 1.10,2013-01-06 07:18:00,
2013-01-05 23:33:00,42.9,42.0,30.10,North,11,3.0,7.0,95,0.12,,,0.44,0,weatherlink.com 1.10,2013-01-06 07:33:00,
2013-01-05 23:48:00,42.9,42.0,30.11,NNE,21,3.0,7.0,95,0.12,,,0.47,0,weatherlink.com 1.10,2013-01-06 07:48:00,